Adelanto, California, United States (92301)
Lat: 34.58N, Lon: 117.41W
Wx Zone: CAZ060
Local Info
Past Weather Observations for Yesterday

NOTE: This archive is for the closest National Weather Service station to Adelanto. Information may differ from the station used for current weather conditions.

Click here for Long-term Archive

Time Weather Temperature Dewpoint Humidity Pressure Winds Precip Visibility
23:55
Clear
70°F / 21°C 43°F / 6°C 38% 30.09 in
(1019 mb)
Calm - 10SM
23:35
Clear
70°F / 21°C 43°F / 6°C 38% 30.09 in
(1019 mb)
SSW 3.5 mph
(SSW 6 kph)
- 10SM
23:15
Clear
72°F / 22°C 43°F / 6°C 36% 30.09 in
(1019 mb)
Calm - 10SM
22:55
Clear
73°F / 23°C 43°F / 6°C 33% 30.09 in
(1019 mb)
Calm - 10SM
22:35
Clear
73°F / 23°C 43°F / 6°C 33% 30.09 in
(1019 mb)
Calm - 10SM
22:15
Clear
73°F / 23°C 43°F / 6°C 33% 30.09 in
(1019 mb)
Calm - 10SM
21:55
Clear
73°F / 23°C 43°F / 6°C 33% 30.09 in
(1019 mb)
Calm - 10SM
21:35
Clear
73°F / 23°C 43°F / 6°C 33% 30.09 in
(1019 mb)
SW 4.6 mph
(SW 7 kph)
- 10SM
21:15
Clear
75°F / 24°C 43°F / 6°C 31% 30.09 in
(1019 mb)
SW 3.5 mph
(SW 6 kph)
- 10SM
20:55
Clear
75°F / 24°C 43°F / 6°C 31% 30.09 in
(1019 mb)
SW 3.5 mph
(SW 6 kph)
- 10SM
20:35
Clear
79°F / 26°C 45°F / 7°C 30% 30.06 in
(1018 mb)
SSE 5.8 mph
(SSE 9 kph)
- 10SM
20:15
Clear
79°F / 26°C 43°F / 6°C 28% 30.06 in
(1018 mb)
SSE 6.9 mph
(SSE 11 kph)
- 10SM
19:55
Clear
81°F / 27°C 43°F / 6°C 26% 30.06 in
(1018 mb)
SW 4.6 mph
(SW 7 kph)
- 10SM
19:35
Clear
82°F / 28°C 43°F / 6°C 25% 30.06 in
(1018 mb)
SSE 6.9 mph
(SSE 11 kph)
- 10SM
19:15
Clear
82°F / 28°C 41°F / 5°C 23% 30.04 in
(1017 mb)
SSW 11.5 mph
(SSW 19 kph)
- 10SM
18:55
Clear
84°F / 29°C 41°F / 5°C 22% 30.04 in
(1017 mb)
SSW 11.5 mph
(SSW 19 kph)
- 10SM
18:35
Clear
86°F / 30°C 39°F / 4°C 19% 30.04 in
(1017 mb)
W 13.8 mph
(W 22 kph)
- 10SM
18:15
Clear
88°F / 31°C 36°F / 2°C 16% 30.04 in
(1017 mb)
W 12.7 mph
(W 20 kph)
- 10SM
17:55
Clear
88°F / 31°C 37°F / 3°C 17% 30.04 in
(1017 mb)
W 11.5 mph
(W 19 kph)
- 10SM
17:35
Clear
90°F / 32°C 36°F / 2°C 15% 30.04 in
(1017 mb)
W 13.8 mph
(W 22 kph)
- 10SM
17:15
Clear
91°F / 33°C 36°F / 2°C 14% 30.04 in
(1017 mb)
W 9.2 mph
(W 15 kph)
- 10SM
16:55
Clear
91°F / 33°C 39°F / 4°C 16% 30.04 in
(1017 mb)
SW 12.7 mph
(SW 20 kph)
- 10SM
16:35
Clear
91°F / 33°C 39°F / 4°C 16% 30.04 in
(1017 mb)
SSE 10.4 mph
(SSE 17 kph)
- 10SM
16:15
Clear
91°F / 33°C 41°F / 5°C 17% 30.04 in
(1017 mb)
SSE 6.9 mph
(SSE 11 kph)
- 10SM
15:55
Clear
93°F / 34°C 39°F / 4°C 15% 30.04 in
(1017 mb)
S 10.4 mph
(S 17 kph)
- 10SM
15:35
Clear
93°F / 34°C 39°F / 4°C 15% 30.04 in
(1017 mb)
SSE 13.8 mph
(SSE 22 kph)
- 10SM
15:15
Clear
93°F / 34°C 39°F / 4°C 15% 30.04 in
(1017 mb)
S 10.4 mph
(S 17 kph)
- 10SM
14:55
Clear
93°F / 34°C 39°F / 4°C 15% 30.04 in
(1017 mb)
S 11.5 mph
(S 19 kph)
- 10SM
14:35
Clear
93°F / 34°C 39°F / 4°C 15% 30.04 in
(1017 mb)
S 10.4 mph
(S 17 kph)
- 10SM
14:15
Clear
91°F / 33°C 39°F / 4°C 16% 30.04 in
(1017 mb)
S 6.9 mph
(S 11 kph)
- 10SM
13:55
Clear
93°F / 34°C 39°F / 4°C 15% 30.04 in
(1017 mb)
SE 4.6 mph
(SE 7 kph)
- 10SM
13:35
Partly Cloudy
91°F / 33°C 37°F / 3°C 15% 30.04 in
(1017 mb)
S 3.5 mph
(S 6 kph)
- 10SM
13:15
Partly Cloudy
91°F / 33°C 37°F / 3°C 15% 30.06 in
(1018 mb)
Calm - 10SM
12:55
Partly Cloudy
91°F / 33°C 37°F / 3°C 15% 30.06 in
(1018 mb)
E 4.6 mph
(E 7 kph)
- 10SM
12:35
Partly Cloudy
90°F / 32°C 37°F / 3°C 16% 30.06 in
(1018 mb)
W 10.4 mph
(W 17 kph)
- 10SM
12:15
Partly Cloudy
91°F / 33°C 37°F / 3°C 15% 30.06 in
(1018 mb)
NW 9.2 mph
(NW 15 kph)
- 10SM
11:55
Partly Cloudy
90°F / 32°C 39°F / 4°C 17% 30.06 in
(1018 mb)
SW 4.6 mph
(SW 7 kph)
- 10SM
11:35
Partly Cloudy
90°F / 32°C 39°F / 4°C 17% 30.09 in
(1019 mb)
SE 5.8 mph
(SE 9 kph)
- 10SM
11:15
Partly Cloudy
88°F / 31°C 43°F / 6°C 21% 30.09 in
(1019 mb)
S 6.9 mph
(S 11 kph)
- 10SM
10:55
Partly Cloudy
86°F / 30°C 43°F / 6°C 22% 30.09 in
(1019 mb)
Calm - 10SM
10:35
Partly Cloudy
86°F / 30°C 45°F / 7°C 24% 30.09 in
(1019 mb)
SW 6.9 mph
(SW 11 kph)
- 10SM
10:15
Partly Cloudy
84°F / 29°C 45°F / 7°C 25% 30.09 in
(1019 mb)
W 3.5 mph
(W 6 kph)
- 10SM
09:55
Partly Cloudy
82°F / 28°C 45°F / 7°C 26% 30.09 in
(1019 mb)
SSW 4.6 mph
(SSW 7 kph)
- 10SM
09:35
Partly Cloudy
84°F / 29°C 46°F / 8°C 27% 30.09 in
(1019 mb)
Calm - 10SM
09:15
Clear
82°F / 28°C 46°F / 8°C 28% 30.09 in
(1019 mb)
Calm - 10SM
08:55
Clear
81°F / 27°C 46°F / 8°C 30% 30.09 in
(1019 mb)
Calm - 10SM
08:35
Clear
79°F / 26°C 46°F / 8°C 32% 30.09 in
(1019 mb)
Calm - 10SM
08:15
Clear
77°F / 25°C 46°F / 8°C 34% 30.09 in
(1019 mb)
Calm - 10SM
07:55
Clear
75°F / 24°C 46°F / 8°C 36% 30.09 in
(1019 mb)
Calm - 10SM
07:35
Clear
73°F / 23°C 48°F / 9°C 41% 30.09 in
(1019 mb)
Calm - 10SM
07:15
Clear
72°F / 22°C 50°F / 10°C 47% 30.09 in
(1019 mb)
Calm - 10SM
06:55
Clear
70°F / 21°C 50°F / 10°C 50% 30.09 in
(1019 mb)
Calm - 10SM
06:35
Clear
70°F / 21°C 48°F / 9°C 46% 30.09 in
(1019 mb)
Calm - 10SM
06:15
Clear
66°F / 19°C 48°F / 9°C 52% 30.09 in
(1019 mb)
Calm - 7SM
05:55
Clear
63°F / 17°C 48°F / 9°C 59% 30.06 in
(1018 mb)
Calm - 10SM
05:35
Clear
63°F / 17°C 48°F / 9°C 59% 30.06 in
(1018 mb)
Calm - 10SM
05:15
Clear
61°F / 16°C 48°F / 9°C 63% 30.06 in
(1018 mb)
SW 3.5 mph
(SW 6 kph)
- 10SM
04:55
Clear
61°F / 16°C 52°F / 11°C 72% 30.06 in
(1018 mb)
SW 3.5 mph
(SW 6 kph)
- 10SM
04:35
Clear
63°F / 17°C 52°F / 11°C 68% 30.06 in
(1018 mb)
SSE 3.5 mph
(SSE 6 kph)
- 10SM
04:15
Clear
64°F / 18°C 52°F / 11°C 64% 30.04 in
(1017 mb)
SSE 6.9 mph
(SSE 11 kph)
- 10SM
03:55
Clear
64°F / 18°C 52°F / 11°C 64% 30.04 in
(1017 mb)
SSE 5.8 mph
(SSE 9 kph)
- 10SM
03:35
Clear
66°F / 19°C 52°F / 11°C 60% 30.04 in
(1017 mb)
SSE 6.9 mph
(SSE 11 kph)
- 10SM
03:15
Clear
66°F / 19°C 54°F / 12°C 64% 30.04 in
(1017 mb)
SE 6.9 mph
(SE 11 kph)
- 10SM
02:55
Clear
66°F / 19°C 54°F / 12°C 64% 30.04 in
(1017 mb)
SSE 6.9 mph
(SSE 11 kph)
- 10SM
02:35
Clear
66°F / 19°C 54°F / 12°C 64% 30.04 in
(1017 mb)
SSE 6.9 mph
(SSE 11 kph)
- 10SM
02:15
Clear
66°F / 19°C 54°F / 12°C 64% 30.04 in
(1017 mb)
SSE 6.9 mph
(SSE 11 kph)
- 10SM
01:55
Clear
66°F / 19°C 54°F / 12°C 64% 30.04 in
(1017 mb)
SSE 8.1 mph
(SSE 13 kph)
- 10SM
01:35
Clear
66°F / 19°C 54°F / 12°C 64% 30.04 in
(1017 mb)
SE 10.4 mph
(SE 17 kph)
- 10SM
01:15
Clear
66°F / 19°C 54°F / 12°C 64% 30.04 in
(1017 mb)
SSE 10.4 mph
(SSE 17 kph)
- 10SM
00:55
Clear
66°F / 19°C 54°F / 12°C 64% 30.04 in
(1017 mb)
S 10.4 mph
(S 17 kph)
- 10SM
00:35
Clear
66°F / 19°C 52°F / 11°C 60% 30.04 in
(1017 mb)
S 8.1 mph
(S 13 kph)
- 10SM
00:15
Clear
66°F / 19°C 52°F / 11°C 60% 30.04 in
(1017 mb)
S 8.1 mph
(S 13 kph)
- 10SM
Time Weather Temperature Dewpoint Humidity Pressure Winds Precip Visibility


Weather for websites

WeatherForYou.com, LLC is not responsible for any damages or problems caused by this service. Current weather conditions are obtained from the closest station including government and personal stations which may have varying degrees of accuracy. Weather forecasts are derived from the NOAA NDFD. Like all things, this site belongs to Jesus Christ... He just trusts me to maintain it. If you have any questions or comments email webmaster@weatherforyou.com

Copyright © 2014, WeatherForYou.com LLC. All rights reserved.